This is the latest recevied weather packets stored in our database for station/object KD8OZS. If no packets are shown the sender has not sent any weather packets the latest 10 day(s).
| Time | Temp. | Humidity | Pressure | Rain* | Wind** | Luminosity | Snow |
|---|---|---|---|---|---|---|---|
| 1787498598 | 20.56° C | 73% | 1008.2 hPa | 0 mm | - | 200 W/m² | - |
| 1787498294 | 20.56° C | 70% | 1008.2 hPa | 0 mm | - | 136 W/m² | - |
| 1787497989 | 20.56° C | 72% | 1008 hPa | 0 mm | - | 206 W/m² | - |
| 1787497685 | 20.56° C | 73% | 1008.1 hPa | 0 mm | - | 314 W/m² | - |
| 1787497380 | 20.56° C | 74% | 1008.1 hPa | 0 mm | - | 151 W/m² | - |
| 1787497079 | 20° C | 74% | 1008 hPa | 0 mm | - | 118 W/m² | - |
| 1787496773 | 20.56° C | 78% | 1008 hPa | 0 mm | - | 401 W/m² | - |
| 1787496463 | 20.56° C | 73% | 1007.8 hPa | 0 mm | - | 294 W/m² | - |
| 1787496158 | 20.56° C | 72% | 1008.1 hPa | 0 mm | - | 422 W/m² | - |
| 1787495852 | 20.56° C | 75% | 1007.8 hPa | 0 mm | - | 212 W/m² | - |
| 1787495548 | 19.44° C | 78% | 1008 hPa | 0 mm | - | 451 W/m² | - |
| 1787495244 | 19.44° C | 76% | 1007.6 hPa | 0 mm | - | 233 W/m² | - |
| 1787494940 | 20° C | 78% | 1007.7 hPa | 0 mm | - | 466 W/m² | - |
| 1787494639 | 20° C | 79% | 1007.7 hPa | 0 mm | - | 501 W/m² | - |
| 1787494335 | 19.44° C | 79% | 1007.8 hPa | 0 mm | - | 607 W/m² | - |
| 1787494031 | 20° C | 82% | 1008.1 hPa | 0 mm | - | 464 W/m² | - |
| 1787493727 | 19.44° C | 81% | 1007.5 hPa | 0 mm | - | 571 W/m² | - |
| 1787493426 | 19.44° C | 82% | 1007.6 hPa | 0 mm | - | 567 W/m² | - |
| 1787493123 | 18.89° C | 83% | 1007.6 hPa | 0 mm | - | 550 W/m² | - |
| 1787492817 | 18.89° C | 84% | 1007.6 hPa | 0 mm | - | 532 W/m² | - |
| 1787492514 | 19.44° C | 84% | 1007.6 hPa | 0 mm | - | 506 W/m² | - |
| 1787492209 | 19.44° C | 84% | 1007.7 hPa | 0 mm | - | 496 W/m² | - |
| 1787491904 | 18.89° C | 84% | 1007.5 hPa | 0 mm | - | 474 W/m² | - |
| 1787491599 | 18.89° C | 86% | 1007.4 hPa | 0 mm | - | 429 W/m² | - |
| 1787491295 | 18.89° C | 87% | 1007.4 hPa | 0 mm | - | 434 W/m² | - |
* Rain latest hour (hover to see other rain measurements)
** Current wind speed in m/s (hover to see current wind gust speed)